Regional Weather Roundup
Issued by NWS

Home | Current Version | Previous Version | Graphics & Text | Print | Product List | Glossary Off
Versions: 1 2 3 4 5 6 7 8 9 10 11 12 13 14 15 16 17 18 19 20 21 22 23 24 25 26 27 28 29 30 31 32 33 34 35 36 37 38 39 40 41 42 43 44 45 46 47 48 49 50

000
ASUS43 KMKX 281810
RWRWI

WISCONSIN REGIONAL WEATHER ROUNDUP
NATIONAL WEATHER SERVICE MILWAUKEE/SULLIVAN WI
1200 PM CST SAT FEB 28 2015

NOTE: "FAIR" INDICATES FEW OR NO CLOUDS BELOW 12,000 FEET WITH NO
SIGNIFICANT WEATHER AND/OR OBSTRUCTIONS TO VISIBILITY.

WIZ001-002-006>008-014>016-023>028-281900-
NORTHWEST WISCONSIN

CITY           SKY/WX    TMP DP  RH WIND       PRES   REMARKS
SUPERIOR ARPT  MOSUNNY   19   5  52 SW13G18   30.45F WCI   7
6HR MIN TEMP:  -5; 6HR MAX TEMP:  20;

ASHLAND        SUNNY     19   0  43 SW10      30.46F WCI   7
6HR MIN TEMP:  -4; 6HR MAX TEMP:  19;

HAYWARD        SUNNY     14  -1  51 S18       30.45F WCI  -3
6HR MIN TEMP: -14; 6HR MAX TEMP:  14;

SIREN          SUNNY     18   3  52 SW13G22   30.47F WCI   4
6HR MIN TEMP:  -8; 6HR MAX TEMP:  18;

CUMBERLAND     SUNNY     12   1  62 S12       30.47F WCI  -2
RICE LAKE      SUNNY     13   2  61 S7        30.52S WCI   2
6HR MIN TEMP: -13; 6HR MAX TEMP:  13;

CHETEK         SUNNY     12   1  60 S9        30.52S WCI   0
6HR MIN TEMP: -14; 6HR MAX TEMP:  12;

LADYSMITH      SUNNY     14   1  56 S6        30.51F WCI   5
6HR MIN TEMP:  -9; 6HR MAX TEMP:  14;

EAU CLAIRE     SUNNY     13   1  59 S10       30.54F WCI   0
6HR MIN TEMP: -10; 6HR MAX TEMP:  13;

MENOMONIE      SUNNY     14   1  57 S10       30.55F WCI   1
6HR MIN TEMP:  -6; 6HR MAX TEMP:  14;

NEW RICHMOND   SUNNY     15   3  59 S13       30.49F WCI   1
6HR MIN TEMP:  -4; 6HR MAX TEMP:  15;

OSCEOLA        SUNNY     17   4  57 S15       30.52F WCI   2
6HR MIN TEMP:  -3; 6HR MAX TEMP:  17;

$$

WIZ003>005-009-010-017-018-281900-
NORTH CENTRAL WISCONSIN

CITY           SKY/WX    TMP DP  RH WIND       PRES   REMARKS
MANITOWISH WTR SUNNY     15  -2  47 SW10G17   30.42F WCI   2
6HR MIN TEMP: -18; 6HR MAX TEMP:  15;

ARBOR VITAE    SUNNY     17   1  49 SW9       30.44S WCI   5
6HR MIN TEMP: -13; 6HR MAX TEMP:  17;

WOODRUFF       SUNNY     17   1  49 SW9       30.44S WCI   5
6HR MIN TEMP: -13; 6HR MAX TEMP:  17;

RHINELANDER    SUNNY     14  -2  49 SW10      30.46F WCI   1
6HR MIN TEMP: -13; 6HR MAX TEMP:  14;

EAGLE RIVER    SUNNY     15  -4  43 SW12      30.43F WCI   2
6HR MIN TEMP: -15; 6HR MAX TEMP:  15;

LAND O LAKES   SUNNY     18  -3  38 SW9       30.42F WCI   7
6HR MIN TEMP: -22; 6HR MAX TEMP:  18;

PHILLIPS       SUNNY     13  -3  48 S12       30.46F WCI  -1
6HR MIN TEMP: -14; 6HR MAX TEMP:  13;

TOMAHAWK       SUNNY     17  -2  43 CALM      30.48F
6HR MIN TEMP: -20; 6HR MAX TEMP:  17;

MEDFORD        SUNNY     10   0  65 S8        30.50F WCI  -3
6HR MIN TEMP: -11; 6HR MAX TEMP:  10;

MERRILL        SUNNY     14  -2  49 S5        30.51F WCI   6
6HR MIN TEMP: -20; 6HR MAX TEMP:  14;

$$

WIZ029-030-035-036-043>047-281900-
CENTRAL WISCONSIN

CITY           SKY/WX    TMP DP  RH WIND       PRES   REMARKS
WAUSAU         SUNNY     12   0  58 S6        30.51F WCI   3
6HR MIN TEMP:  -9; 6HR MAX TEMP:  12;

MOSINEE        NOT AVBL
MARSHFIELD     SUNNY     13  -2  51 S8        30.53F WCI   2
6HR MIN TEMP:  -8; 6HR MAX TEMP:  13;

STEVENS POINT  SUNNY     12  -3  50 SW8       30.56F WCI   0
6HR MIN TEMP: -13; 6HR MAX TEMP:  12;

WAUPACA        SUNNY     20  -1  38 S6        30.60F WCI  13
6HR MIN TEMP:  -4; 6HR MAX TEMP:  20;

WAUTOMA        SUNNY     17  -5  37 S9        30.61F WCI   6
6HR MIN TEMP: -16; 6HR MAX TEMP:  17;

WISC RAPIDS    SUNNY     13  -6  42 SW9       30.58F WCI   1
6HR MIN TEMP: -12; 6HR MAX TEMP:  13;

CAMP DOUGLAS   SUNNY     14  -2  48 S8        30.58F WCI   3
$$

WIZ011>013-019>022-031-037>040-048>050-281900-
NORTHEAST WISCONSIN

CITY           SKY/WX    TMP DP  RH WIND       PRES   REMARKS
ANTIGO         SUNNY     12   0  59 SW8       30.50F WCI   1
6HR MIN TEMP: -17; 6HR MAX TEMP:  12;

SHAWANO        SUNNY     18   1  47 SW5       30.60F WCI  11
6HR MIN TEMP:  -1; 6HR MAX TEMP:  18;

OCONTO         SUNNY     18   2  50 SW7       30.61F WCI   8
6HR MIN TEMP:  -8; 6HR MAX TEMP:  18;

STURGEON BAY   SUNNY     16   1  53 SW9       30.63F WCI   4
6HR MIN TEMP:   1; 6HR MAX TEMP:  16;

GREEN BAY      SUNNY     15   1  53 SW9       30.62F WCI   3
6HR MIN TEMP:   0; 6HR MAX TEMP:  16;

MANITOWOC      SUNNY     22   0  38 SW9       30.64F WCI  12
6HR MIN TEMP:   1; 6HR MAX TEMP:  23;

APPLETON       MOSUNNY   16   0  48 SW8       30.61F WCI   5
CLINTONVILLE   SUNNY     18   0  45 SW6       30.59F WCI   9
OSHKOSH        SUNNY     14   0  53 S12       30.62F WCI   0
6HR MIN TEMP:  -4; 6HR MAX TEMP:  14;

$$

WIZ032>034-041-042-053>061-281900-
SOUTHWEST WISCONSIN

CITY           SKY/WX    TMP DP  RH WIND       PRES   REMARKS
LA CROSSE      SUNNY     12  -1  56 S10       30.62F WCI  -1
6HR MIN TEMP:  -9; 6HR MAX TEMP:  12;

SPARTA         SUNNY     14  -1  50 S9        30.60F WCI   2
6HR MIN TEMP: -17; 6HR MAX TEMP:  14;

VIROQUA        SUNNY     12  -1  55 S9        30.56F WCI   0
6HR MIN TEMP:  -6; 6HR MAX TEMP:  12;

BOSCOBEL       SUNNY     14  -1  51 VRB3      30.65F
6HR MIN TEMP: -20; 6HR MAX TEMP:  14;

PRAIRIE DU CHI SUNNY     13  -3  48 S5        30.62F WCI   5
6HR MIN TEMP: -19; 6HR MAX TEMP:  13;

PLATTEVILLE    SUNNY     10  -1  60 SE3       30.60F
6HR MIN TEMP:  -8; 6HR MAX TEMP:  10;

$$

WIZ056-057-062-063-064-067-068-281900-
SOUTH CENTRAL WISCONSIN

CITY           SKY/WX    TMP DP  RH WIND       PRES   REMARKS
REEDSBURG      SUNNY     13  -1  53 S9        30.61F WCI   0
6HR MIN TEMP: -11; 6HR MAX TEMP:  13;

BARABOO/DELLS  SUNNY     13  -3  48 SW6       30.60F WCI   4
6HR MIN TEMP:  -7; 6HR MAX TEMP:  13;

LONE ROCK      SUNNY     13  -2  51 CALM      30.64F
6HR MIN TEMP: -17; 6HR MAX TEMP:  13;

MINERAL POINT  SUNNY     12  -2  52 S7        30.59F WCI   2
MADISON        PTSUNNY   12  -5  46 S10       30.63F WCI  -1
6HR MIN TEMP:  -9; 6HR MAX TEMP:  12;

MIDDLETON      SUNNY     15  -4  43 S8        30.63F WCI   4
6HR MIN TEMP: -14; 6HR MAX TEMP:  15;

WATERTOWN      SUNNY     14   0  52 SW9       30.64F WCI   2
6HR MIN TEMP: -10; 6HR MAX TEMP:  14;

MONROE         SUNNY     12   1  62 S9        30.61F WCI   0
JANESVILLE     SUNNY     16   0  48 S9        30.65F WCI   4
$$

WIZ051-052-058>065-066-070>072-281900-
SOUTHEAST WISCONSIN

CITY           SKY/WX    TMP DP  RH WIND       PRES   REMARKS
MILWAUKEE      MOSUNNY   14  -5  42 SW12      30.67F WCI   0
6HR MIN TEMP:  -5; 6HR MAX TEMP:  14;

WAUKESHA       SUNNY     12  -4  48 SW6       30.65F WCI   3
MILWAUKEE/TIMM NOT AVBL
RACINE         SUNNY     14  -2  49 SW9       30.69F WCI   2
6HR MIN TEMP:  -7; 6HR MAX TEMP:  14;

BURLINGTON     SUNNY     15  -1  50 SW9       30.66F WCI   3
6HR MIN TEMP: -19; 6HR MAX TEMP:  15;

KENOSHA        SUNNY     16  -1  47 SW6       30.67F WCI   7
6HR MIN TEMP: -12; 6HR MAX TEMP:  16;

FOND DU LAC    SUNNY     15  -2  46 SW9       30.63F WCI   3
6HR MIN TEMP:  -5; 6HR MAX TEMP:  15; 6HR PCP: TRACE;

SHEBOYGAN      SUNNY     16  -1  47 SW9       30.64F WCI   4
6HR MIN TEMP:  -3; 6HR MAX TEMP:  16;

WEST BEND      SUNNY     18  -4  38 S3        30.63F
JUNEAU         SUNNY     13  -2  52 S9        30.64F WCI   0
6HR MIN TEMP:  -6; 6HR MAX TEMP:  13;

$$

LSZ147-162-281900-
LAKE SUPERIOR

STATION/POSITION TIME  TEMP    WIND        PRES    WAVE
                       AIR SEA DIR/SP/G            HT/PER
                 (UTC) (F)     (DEG/KT/KT) (MB)    (FT/S)
DEVILS ISLAND    1800   15     200/  5/  7 1033.0F
PORT WING        1700   16     210/ 10/ 14 1031.8F
SAXON HARBOR     1700   18     210/ 11/ 13 1032.2F
$$

LMZ867-665-643>646-281900-
LAKE MICHIGAN

STATION/POSITION TIME  TEMP    WIND        PRES    WAVE
                       AIR SEA DIR/SP/G            HT/PER


USA.gov is the U.S. government's official web portal to all federal, state and local government web resources and services.